Terminal Aerodrome Forecast
Issued by NWS Charleston, WV

Current Version | Previous Version | Graphics & Text | Print | Product List | Glossary On
Versions: 1 2 3 4 5 6 7 8 9 10 11 12 13 14 15 16 17 18 19 20 21 22 23 24 25 26 27 28 29
000
FTUS41 KRLX 182205 AAB
TAFPKB
TAF AMD
KPKB 182205Z 1822/1918 28010KT P6SM SKC
     FM190100 27003KT P6SM SKC
     FM190500 00000KT 3SM BR FEW001
     FM190700 00000KT 1/2SM FG BKN001
     FM191200 00000KT 1 1/2SM BR SCT001
     FM191300 24004KT P6SM SCT035=

USA.gov is the U.S. government's official web portal to all federal, state and local government web resources and services.